Zurück zum Katalog

STARLINK-37197

AktivKommunikationSSO
NORAD 68389·PAYLOAD·🇺🇸 United States

Gestartet Mar 26, 2026 von Vandenberg Space Force Base

Loading…

Nächste Überflüge (nächste 24 Stunden)

TLE

AktuellSource: CelesTrak SupGP

Epoche: Sep 15, 2026, 02:59 UTC

1 68389C 26063K   26258.12479167 -.00019793  00000+0 -61454-3 0  2582
2 68389  97.2851  39.1283 0001013  84.2539 114.2502 15.33444363    12

Verfolge STARLINK-37197 in Echtzeit mit AllMySat

Download on the App Store